Regional Weather Roundup
Issued by NWS Grand Forks, ND

Home | Current Version | Previous Version | Text Only | Print | Product List | Glossary Off
Versions: 1 2 3 4 5 6 7 8 9 10 11 12 13 14 15 16 17 18 19 20 21 22 23 24 25 26 27 28 29 30 31 32 33 34 35 36 37 38 39 40 41 42 43 44 45 46 47 48 49 50

523
ASUS43 KFGF 301831
RWRFGF
PRAIRIE TO PINES  WEATHER ROUNDUP
NATIONAL WEATHER SERVICE EASTERN NORTH DAKOTA/GRAND FORKS ND
100 PM CDT TUE AUG 30 2016

 **SATELLITE DATA USED TO AUGMENT SKY COVER AT AUTOMATED STATIONS**
 *****  WEATHER ACROSS EASTERN NORTH DAKOTA  *****

CITY           SKY/WX    TMP DP  RH WIND       PRES   REMARKS
GRAND FORKS    FAIR      76  51  41 W5        30.23F
6HR MIN TEMP:  50; 6HR MAX TEMP:  76;

GRAND FRKS AFB FAIR      75  50  41 N6        30.24F
GRAND FRKS NWS   N/A     77 N/A N/A VRB6        N/A
DEVILS LAKE    FAIR      72  52  49 S7        30.27F
6HR MIN TEMP:  50; 6HR MAX TEMP:  72;

FARGO          FAIR      77  51  40 N5        30.23F
WAHPETON ARPT  FAIR      77  41  27 N6        30.23F
$$

 ***** WEATHER ACROSS CENTRAL AND WESTERN NORTH DAKOTA  *****

CITY           SKY/WX    TMP DP  RH WIND       PRES   REMARKS
BISMARCK       SUNNY     79  47  32 SE10      30.25F
6HR MIN TEMP:  48; 6HR MAX TEMP:  79;

MINOT          FAIR      80  41  24 SE10      30.24F
6HR MIN TEMP:  47; 6HR MAX TEMP:  80;

JAMESTOWN      FAIR      76  50  40 E5        30.26F
6HR MIN TEMP:  49; 6HR MAX TEMP:  76;

MINOT AFB      FAIR      78  44  29 S12       30.23F
GARRISON         N/A     78  48  34 S13G20    30.24F
WILLISTON      MOSUNNY   82  47  29 SE15      30.18F
6HR MIN TEMP:  49; 6HR MAX TEMP:  83;

DICKINSON      PTSUNNY   77  51  40 S14G21    30.23F
6HR MIN TEMP:  52; 6HR MAX TEMP:  77;

HETTINGER      SUNNY     80  59  48 E12       30.25S
6HR MIN TEMP:  51; 6HR MAX TEMP:  80;

$$

 *****  OTHER AIRPORT OBSERVATIONS IN OUR AREA  *****

CITY           SKY/WX    TMP DP  RH WIND       PRES   REMARKS
WALHALLA       FAIR      72  68  88 NW5       30.25S
GRAFTON AIRPOR FAIR      75  50  41 W6        30.25F
VALLEY CITY AR FAIR      73  50  43 N3        30.28S
CANDO          FAIR      75  50  41 W5        30.28F
CAVALIER APRT  FAIR      73  50  43 NW6       30.24F
GWINNER        FAIR      77  55  47 E5        30.25F
SHEYENNE NWR     N/A     77  52  41 NE3       29.95S
ROLLA            N/A     73  46  38 N3        30.28F
 ***** THE ABOVE OBSERVATIONS ARE NON NWS ARE NOT QUALITY
       CONTROLLED AND MAY MIS-REPORT RAIN FOR SNOW...
$$

  *****  WEATHER ACROSS NORTHERN MINNESOTA  *****

CITY           SKY/WX    TMP DP  RH WIND       PRES   REMARKS
FLAG ISLAND    FAIR      70  45  40 NW3       30.20F
WARROAD        FAIR      70  54  56 W5G17     30.23F
ROSEAU         FAIR      73  52  46 NW8       30.23F
HALLOCK        FAIR      73  46  38 NW6       30.23F
THF RVR FALLS  FAIR      71  50  47 NW8       30.25F
6HR MIN TEMP:  48; 6HR MAX TEMP:  72;

BAUDETTE       FAIR      70  49  47 NW10      30.22F
6HR MIN TEMP:  48; 6HR MAX TEMP:  71;

WASKISH        FAIR      72  54  53 W8        30.23F
CROOKSTON      FAIR      73  52  46 NW7       30.24F
STEPHEN NDAWN    N/A     73  48  40 NW7         N/A
GREENBUSH NDAW   N/A     73  50  43 SW7         N/A
$$
  *****  WEATHER ACROSS CENTRAL AND WEST MINNESOTA  *****

CITY           SKY/WX    TMP DP  RH WIND       PRES   REMARKS
FOSSTON        FAIR      72  52  49 W5        30.26S
BEMIDJI        FAIR      71  50  46 NW9       30.24S
PARK RAPIDS    NOT AVBL
ELBOW LAKE     FAIR      74  53  46 N5        30.24S
WADENA         FAIR      73  54  49 N9        30.23F
DETROIT LAKES  FAIR      72  54  53 N8        30.26F
MOORHEAD       FAIR      75  50  41 N8        30.24F
FERGUS FALLS   FAIR      75  52  43 NE5       30.24F
MORRIS MN      FAIR      79  50  36 N5        30.22S
STAPLES        FAIR      73  48  40 W6        30.22F
$$
  *****  WEATHER ELSEWHERE ACROSS MINNESOTA  *****

CITY           SKY/WX    TMP DP  RH WIND       PRES   REMARKS
DULUTH         FAIR      73  53  49 VRB5      30.18F
6HR MIN TEMP:  62; 6HR MAX TEMP:  73;

INTRNTL FALLS  FAIR      71  50  47 W8        30.20S
6HR MIN TEMP:  48; 6HR MAX TEMP:  71;

ELY            FAIR      68  48  49 W3        30.18S
CLOQUET        FAIR      73  48  40 NW6       30.19S
WHEATON        FAIR      81  55  41 N7        30.24S
BRAINERD       FAIR      73  52  47 N10       30.22F
6HR MIN TEMP:  60; 6HR MAX TEMP:  73;

HIBBING        FAIR      68  49  50 MISG      30.20F
6HR MIN TEMP:  50; 6HR MAX TEMP:  68;

ALEXANDRIA     FAIR      75  49  39 N6        30.25S
6HR MIN TEMP:  61; 6HR MAX TEMP:  75;

SAINT CLOUD    FAIR      74  52  46 N7        30.21F
6HR MIN TEMP:  63; 6HR MAX TEMP:  74;

MINNEAPOLIS    PTSUNNY   76  61  59 N8        30.19F
6HR MIN TEMP:  67; 6HR MAX TEMP:  76;

$$

  *****  WEATHER ACROSS SOUTH DAKOTA  *****

CITY           SKY/WX    TMP DP  RH WIND       PRES   REMARKS
SIOUX FALLS    PTSUNNY   83  70  64 NW3       30.21F
6HR MIN TEMP:  68; 6HR MAX TEMP:  83;

BROOKINGS      PTSUNNY   75  66  73 NE6       30.23F
WATERTOWN      FAIR      77  60  55 E8        30.24F
6HR MIN TEMP:  60; 6HR MAX TEMP:  78;

HURON          PTSUNNY   82  67  60 E6        30.19F
6HR MIN TEMP:  66; 6HR MAX TEMP:  82;

SISSETON         N/A     78  53  41 NE6       30.22F
ABERDEEN       SUNNY     80  56  43 NE12      30.22F
6HR MIN TEMP:  53; 6HR MAX TEMP:  80;

MITCHELL       SUNNY     83  68  60 VRB5      30.20F
PIERRE         PTSUNNY   82  68  62 SE10      30.18F
6HR MIN TEMP:  63; 6HR MAX TEMP:  82;

MOBRIDGE       SUNNY     84  56  38 E10       30.19F
RAPID CITY     SUNNY     77  65  66 SE12      30.24F
6HR MIN TEMP:  60; 6HR MAX TEMP:  77;

$$

  *****  SOME WEATHER IN NEARBY STATES *****

CITY           SKY/WX    TMP DP  RH WIND       PRES   REMARKS
GLASGOW MT     MOSUNNY   77  52  41 SE17      30.10R
6HR MIN TEMP:  58; 6HR MAX TEMP:  77;

GREAT FALLS MT MOSUNNY   78  45  30 CALM      30.12F
6HR MIN TEMP:  53; 6HR MAX TEMP:  79;

CHEYENNE WY    SUNNY     70  50  49 CALM      30.38F
6HR MIN TEMP:  51; 6HR MAX TEMP:  75;

SCOTTSBLUFF NE MOSUNNY   80  60  50 VRB6      30.28F
6HR MIN TEMP:  54; 6HR MAX TEMP:  80;

OMAHA NE       CLOUDY    76  67  73 SE7       30.18F
6HR MIN TEMP:  70; 6HR MAX TEMP:  76; 6HR PCP: TRACE;

DES MOINES IA  CLOUDY    79  71  76 NW7       30.16S
6HR MIN TEMP:  71; 6HR MAX TEMP:  79;

DAVENPORT IA   PTSUNNY   81  71  71 VRB3      30.14F
6HR MIN TEMP:  70; 6HR MAX TEMP:  79; 6HR PCP:  0.01;

CHICAGO IL     PTSUNNY   81  72  74 VRB3      30.10F
6HR MIN TEMP:  71; 6HR MAX TEMP:  81; 6HR PCP:  0.05;

EAU CLAIRE WI  FAIR      79  66  64 N7        30.14F
6HR MIN TEMP:  67; 6HR MAX TEMP:  79;

LA CROSSE WI   FAIR      82  65  56 W8        30.14F
6HR MIN TEMP:  71; 6HR MAX TEMP:  82;

$$

  *****  SOME NATIONAL WEATHER *****

CITY           SKY/WX    TMP DP  RH WIND       PRES   REMARKS
LA GUARDIA NY  FAIR      85  60  42 SW7       30.11F
6HR MIN TEMP:  73; 6HR MAX TEMP:  86;

RALEIGH NC     FAIR      90  66  45 VRB5      30.09F HX  92
6HR MIN TEMP:  73; 6HR MAX TEMP:  90;

ATLANTA GA     FAIR      88  68  51 E9        30.08F HX  91
6HR MIN TEMP:  74; 6HR MAX TEMP:  88;

NEW ORLEANS LA FAIR      93  78  61 NE15      29.94F HX 108
6HR MIN TEMP:  82; 6HR MAX TEMP:  93;

OKLAHOMA CITY  PTSUNNY   89  66  46 NE8       30.12F HX  91
6HR MIN TEMP:  72; 6HR MAX TEMP:  90;

ALBUQUERQUE NM MOSUNNY   77  49  37 E9G18     30.33F
6HR MIN TEMP:  60; 6HR MAX TEMP:  77;

SALT LAKE CITY MOSUNNY   90  35  14 S12       30.13F
6HR MIN TEMP:  67; 6HR MAX TEMP:  90;

LOS ANGELES CA MOSUNNY   79  64  60 W8        29.87F
6HR MIN TEMP:  68; 6HR MAX TEMP:  79;

BOISE ID       CLOUDY   C1F1C2F2C3F3C4F4C5F5C6F6C7F7C8F8C9F9CaFaCbFbCcFcCd!



USA.gov is the U.S. government's official web portal to all federal, state and local government web resources and services.